sat.trackr.live / text

‹ back to catalog

STARLINK-34213

NORAD 64148 · 2025-112C

PAYLOAD ACTIVE UNKNOWN

§ Identity

Operator
Country
US
Launch date
2025-05-27
Launch site
AFWTR
Launch vehicle
Mass (kg)
RCS (m²)

Purposes: comms

External: N2YO · Heavens-Above · Gunter

§ Orbital elements

Epoch: 2026-05-25T02:30:11.271168Z

Period
95.64 min
Inclination
97.4463°
Eccentricity
0.0002437
Mean motion
15.05660779 rev/d
Perigee alt
547.8 km
Apogee alt
551.2 km
Semi-major
6,927.6 km
B*
3.8613e-4
RAAN
196.4250°
Arg perigee
108.5519°
Mean anomaly
251.5973°
Rev number
5,480

§ Raw data

STARLINK-342131 64148U 25112C   26145.10429712  .00005519  00000+0  38613-3 0  99912 64148  97.4463 196.4250 0002437 108.5519 251.5973 15.05660779 54805

JSON: /api/v1/satellites/64148 · /tle

For live sub-satellite position, see the globe view (requires WebGL).

§ Visibility from observer

Set your observer location to see the next 7 days of passes ≥ 10°. The values pass through the URL so the page stays shareable.

No JS? Fill the form by hand. The geolocation button needs JavaScript.